STARLINK-1922 (46753 NORAD) Tracking and Keplerian Element Data

This shows tracking and keplerian element data for the satellite.

Feedback or suggestion? Click here.




ElementValue
Catalog46753
NameSTARLINK-1922
Epoch Orbit562
Epoch Day331.16668981
Epoch Year2020
RAAN0.7509
Inclination53.055
Eccentricity9.62E-05
Argument of Perigee71.1654
Mean Anonmoly146.988
Mean Motion15.62801453
Decay Rate-0.00056991
L11 46753U 20074Q 20331.16668981 -.00056991 00000-0 -61980-3 0 9991
L22 46753 53.0550 0.7509 0000962 71.1654 146.9880 15.62801453 5621

Live tracking and technical data element details for STARLINK-1922 (NORAD 46753). STARLINK-1922 can be tracked NOW for your location showing map with azimuth and elevation plus other details from your city location.

Track the satellite on the map from your city or location and see movement details for azimuth, elevation, latitude, longitude, range, height, and movement on the map or in text.







IsCatalogInMostPopularTable: catalog: 46753, numindb: 6
Update: records affected: 1



GetName: 46753 STARLINK-1922

Hit Count: updated at: Thu, 26 Nov 2020 18:00:29 GMT